User: anonymous   Login
Location: Strawberry
(45.6646°N, 111.9596°W)
Time: 16:04:07
(UTC+00:00)
Language:

Explorer 11/Cluster Stage 4 - Orbit

View from above orbital plane
View from above orbital plane
View from above satellite
View from above satellite

Ground track
Ground track

The orbit data is extracted from the following two-line orbital elements,

1 00107U 61013A   22268.85696272  .00002074  00000-0  25806-3 0  9991
2 00107  28.7856 168.2242 0540873 140.3138 223.8317 14.10449486 83488
Epoch (UTC): 25 September 2022 20:34:01
Eccentricity: 0.0540873
inclination: 28.7856°
perigee height: 466 km
apogee height: 1249 km
right ascension of ascending node: 168.2242°
argument of perigee: 140.3138°
revolutions per day: 14.10449486
mean anomaly at epoch: 223.8317°
orbit number at epoch: 8348

The dashed part of the orbit path shows where the satellite is in the earth's shadow,  

DLR